Location: ??????
(41.3794°N, 22.5014°E)
Time: 22:22:01
(UTC+00:00)

ERS-2 - Pass Details

Date: 30 November 2020
Orbit: 492 x 498 km, 98.6° (Epoch: 19 January)

Event Time Altitude Azimuth Distance (km) Brightness Sun altitude
Exits shadow 16:58:00 11° 354° (N) 1,677 4.7 -21.3°
Maximum altitude 17:01:15 33° 290° (WNW) 849 3.7 -21.9°
Drops below altitude 10° 17:04:33 10° 224° (SW) 1,696 5.5 -22.5°
Sets 17:06:44 0° 215° (SW) 2,574 6.4 -22.9°
